W1TG-2 Weather Reports


time (UTC)temp
C
wind
direction
speed
KPH
gust
KPH
rain 1hr
cm
rain 24hr
cm
rain mn
cm
humidity
%
barometer
mb
20260508014803 10 0 0.0 0.0 0.00 0.05 0.05 54 1006.6
20260508014204 10 0 0.0 0.0 0.00 0.05 0.05 53 1006.6
20260508013603 10 0 0.0 0.0 0.00 0.05 0.05 52 1006.4
20260508013003 10 273 0.0 1.6 0.00 0.05 0.05 51 1006.3
20260508012404 11 0 0.0 0.0 0.00 0.05 0.05 50 1006.6
20260508011804 11 0 0.0 0.0 0.00 0.05 0.05 50 1006.3
20260508011203 11 0 0.0 0.0 0.00 0.05 0.05 49 1006.2
20260508010603 11 0 0.0 0.0 0.00 0.05 0.05 49 1006.1
20260508010004 11 0 0.0 0.0 0.00 0.05 0.05 48 1005.9
20260508005404 12 0 0.0 0.0 0.00 0.05 0.05 47 1006.0
20260508004803 12 0 0.0 0.0 0.00 0.05 0.05 45 1005.9
20260508004203 12 0 0.0 0.0 0.00 0.05 0.05 45 1005.9
20260508003604 12 0 0.0 0.0 0.00 0.05 0.05 44 1005.8
20260508003004 12 0 0.0 0.0 0.00 0.05 0.05 44 1005.6
20260508002403 12 273 0.0 1.6 0.00 0.05 0.05 44 1005.7
20260508001804 13 273 0.0 1.6 0.00 0.05 0.05 43 1005.6
20260508001203 13 0 0.0 0.0 0.00 0.05 0.05 43 1005.5
20260508000603 13 0 0.0 0.0 0.00 0.05 0.05 41 1005.4
20260508000003 13 0 0.0 0.0 0.00 0.05 0.05 41 1005.4
20260507235404 13 273 0.0 4.8 0.00 0.05 0.05 40 1005.3
20260507234803 13 273 0.0 4.8 0.00 0.05 0.05 39 1005.4
20260507234203 14 273 0.0 3.2 0.00 0.08 0.05 39 1005.3
20260507233604 14 273 0.0 12.9 0.00 0.10 0.05 38 1005.2
20260507233004 14 273 0.0 12.9 0.00 0.18 0.05 38 1005.0
20260507232403 15 273 0.0 9.7 0.00 0.18 0.05 37 1005.0
20260507231803 15 272 0.0 11.3 0.00 0.20 0.05 36 1005.0
20260507231204 15 271 0.0 11.3 0.00 0.23 0.05 36 1005.0
20260507230604 15 271 1.6 11.3 0.00 0.23 0.05 35 1004.9
20260507230004 15 271 0.0 9.7 0.00 0.28 0.05 36 1004.9
20260507225403 15 271 1.6 9.7 0.00 0.30 0.05 35 1004.8
20260507224804 15 271 1.6 6.4 0.00 0.33 0.05 35 1004.8
20260507224203 16 271 1.6 12.9 0.00 0.36 0.05 33 1004.7
20260507223603 16 266 1.6 12.9 0.00 0.38 0.05 34 1004.5
20260507223004 16 246 1.6 11.3 0.00 0.38 0.05 35 1004.4
20260507222404 16 246 1.6 12.9 0.00 0.43 0.05 35 1004.5
20260507221803 16 246 0.0 11.3 0.00 0.46 0.05 35 1004.4
20260507221203 16 246 0.0 8.0 0.00 0.48 0.05 34 1004.2
20260507220604 16 245 1.6 16.1 0.00 0.48 0.05 33 1004.2
20260507220004 16 245 1.6 16.1 0.00 0.48 0.05 34 1004.1
20260507215403 17 245 1.6 12.9 0.00 0.48 0.05 34 1004.0
20260507214804 17 255 1.6 14.5 0.00 0.48 0.05 33 1004.0
20260507214204 17 271 1.6 12.9 0.00 0.51 0.05 37 1003.9
20260507213603 17 271 1.6 12.9 0.00 0.51 0.05 34 1004.1
20260507213003 17 272 0.0 11.3 0.00 0.51 0.05 33 1003.8
20260507212404 17 262 1.6 17.7 0.00 0.51 0.05 33 1003.9
20260507211804 17 276 3.2 17.7 0.00 0.53 0.05 33 1003.9
20260507211203 17 328 1.6 11.3 0.00 0.53 0.05 34 1003.9
20260507210603 17 320 1.6 22.5 0.00 0.56 0.05 35 1003.7
20260507210004 17 317 1.6 22.5 0.00 0.58 0.05 34 1003.9
20260507205403 17 330 0.0 6.4 0.00 0.58 0.05 34 1003.8
20260507204803 18 335 0.0 14.5 0.00 0.61 0.05 35 1003.7
20260507204204 17 336 1.6 14.5 0.00 0.61 0.05 35 1003.8
20260507203603 17 336 1.6 12.9 0.00 0.64 0.05 36 1003.6
20260507203003 17 344 1.6 8.0 0.00 0.66 0.05 34 1003.7
20260507202404 17 327 1.6 20.9 0.00 0.71 0.05 35 1003.7
20260507201804 17 287 0.0 9.7 0.00 0.76 0.05 35 1003.7
20260507201203 17 287 1.6 9.7 0.00 0.81 0.05 36 1003.7
20260507200603 18 290 1.6 11.3 0.00 0.81 0.05 37 1003.8
20260507200004 17 278 1.6 12.9 0.00 0.81 0.05 37 1003.8
20260507195404 17 284 1.6 16.1 0.00 0.84 0.05 37 1003.8
20260507194803 17 269 1.6 16.1 0.00 0.84 0.05 36 1004.0
20260507194203 17 252 1.6 16.1 0.00 0.86 0.05 36 1004.0
20260507193604 17 252 1.6 8.0 0.00 0.86 0.05 37 1004.0
20260507193003 17 251 1.6 14.5 0.00 0.89 0.05 35 1004.0
20260507192403 17 251 1.6 16.1 0.00 0.89 0.05 38 1004.1
20260507191803 17 253 1.6 16.1 0.00 0.91 0.05 35 1004.2
20260507191204 17 262 1.6 12.9 0.00 0.91 0.05 38 1004.2
20260507190603 17 282 1.6 12.9 0.00 0.91 0.05 36 1004.2
20260507190004 17 257 1.6 14.5 0.00 0.91 0.05 35 1004.4
20260507185404 17 247 1.6 16.1 0.00 0.91 0.05 36 1004.2
20260507184804 17 284 1.6 16.1 0.00 0.91 0.05 38 1004.3
20260507184203 17 316 1.6 14.5 0.00 0.91 0.05 38 1004.4
20260507183603 17 265 1.6 14.5 0.00 0.91 0.05 36 1004.4
20260507183004 17 208 1.6 12.9 0.00 0.91 0.05 36 1004.6
20260507182403 17 209 3.2 20.9 0.00 0.91 0.05 35 1004.5
20260507181803 17 220 1.6 20.9 0.00 0.91 0.05 37 1004.5
20260507181204 17 229 3.2 20.9 0.00 0.91 0.05 39 1004.5
20260507180604 17 239 3.2 20.9 0.00 0.91 0.05 39 1004.5
20260507180004 17 270 1.6 17.7 0.00 0.91 0.05 37 1004.6
20260507175403 17 282 3.2 24.1 0.00 0.91 0.05 41 1004.5
20260507174804 17 247 3.2 24.1 0.00 0.91 0.05 41 1004.4
20260507174204 17 249 1.6 14.5 0.00 0.91 0.05 39 1004.4
20260507173603 17 249 1.6 14.5 0.00 0.91 0.05 43 1004.4
20260507173003 17 249 1.6 14.5 0.00 0.91 0.05 42 1004.6
20260507172404 17 248 1.6 14.5 0.00 0.91 0.05 40 1004.6
20260507171804 17 243 3.2 14.5 0.00 0.91 0.05 43 1004.7
20260507171203 17 235 1.6 14.5 0.00 0.91 0.05 44 1004.8
20260507170603 17 231 1.6 16.1 0.00 0.91 0.05 48 1004.8
20260507170004 16 231 1.6 16.1 0.00 0.91 0.05 53 1004.9
20260507165403 16 232 1.6 11.3 0.00 0.91 0.05 57 1004.9
20260507164803 16 230 3.2 11.3 0.00 0.91 0.05 55 1004.9
20260507164204 15 227 1.6 11.3 0.00 0.91 0.05 55 1005.1
20260507163604 16 224 1.6 12.9 0.00 0.91 0.05 55 1005.1
20260507163003 16 225 1.6 12.9 0.00 0.91 0.05 54 1005.1
20260507162403 16 225 3.2 11.3 0.00 0.91 0.05 56 1005.2
20260507161804 16 224 3.2 16.1 0.00 0.91 0.05 57 1005.2
20260507161204 16 222 1.6 11.3 0.00 0.91 0.05 55 1005.3
20260507160603 16 221 1.6 16.1 0.00 0.91 0.05 55 1005.3
20260507160003 16 210 1.6 16.1 0.00 0.91 0.05 55 1005.3
20260507155404 16 192 1.6 8.0 0.00 0.91 0.05 56 1005.3
20260507154803 15 192 0.0 8.0 0.00 0.91 0.05 55 1005.5
20260507154203 15 193 0.0 9.7 0.00 0.91 0.05 55 1005.4
20260507153604 16 192 0.0 9.7 0.00 0.91 0.05 53 1005.6
20260507153003 16 192 1.6 9.7 0.00 0.91 0.05 55 1005.6
20260507152403 15 191 1.6 14.5 0.00 0.91 0.05 54 1005.7
20260507151803 15 191 0.0 12.9 0.00 0.91 0.05 56 1005.9
20260507151204 16 191 0.0 12.9 0.00 0.91 0.05 54 1006.0
20260507150603 16 191 0.0 8.0 0.00 0.91 0.05 56 1005.9
20260507150003 15 191 1.6 11.3 0.00 0.91 0.05 56 1006.1
20260507145404 15 191 1.6 11.3 0.00 0.91 0.05 57 1006.1
20260507144804 15 191 1.6 8.0 0.00 0.91 0.05 55 1006.0
20260507144203 15 191 1.6 8.0 0.00 0.91 0.05 58 1006.2
20260507143603 15 191 0.0 9.7 0.00 0.91 0.05 56 1006.0
20260507143004 15 190 0.0 6.4 0.00 0.91 0.05 57 1006.0
20260507142403 15 190 0.0 6.4 0.00 0.91 0.05 57 1006.0
20260507141803 15 191 1.6 6.4 0.00 0.91 0.05 60 1005.9
20260507141204 15 191 0.0 6.4 0.00 0.91 0.05 59 1005.8
20260507140604 15 191 0.0 6.4 0.00 0.91 0.05 61 1005.9
20260507140003 15 191 0.0 4.8 0.00 0.91 0.05 63 1005.8
20260507135404 14 191 0.0 6.4 0.00 0.91 0.05 63 1005.9
20260507134803 14 191 0.0 6.4 0.00 0.91 0.05 63 1006.0
20260507134203 14 191 0.0 6.4 0.00 0.91 0.05 64 1006.1
20260507133603 13 191 0.0 6.4 0.00 0.91 0.05 63 1006.3
20260507133004 13 191 0.0 8.0 0.00 0.91 0.05 65 1006.5
20260507132403 13 191 0.0 8.0 0.00 0.91 0.05 65 1006.5
20260507131803 13 191 0.0 8.0 0.00 0.91 0.05 66 1006.6
20260507131203 13 191 0.0 3.2 0.00 0.91 0.05 67 1006.6
20260507130604 13 191 0.0 8.0 0.00 0.91 0.05 70 1006.6
20260507130004 12 191 0.0 11.3 0.00 0.91 0.05 71 1006.8
20260507125403 12 191 1.6 11.3 0.00 0.91 0.05 70 1006.7
20260507124804 12 191 0.0 8.0 0.00 0.91 0.05 71 1006.8
20260507124204 12 191 0.0 8.0 0.00 0.91 0.05 70 1006.8
20260507123603 12 191 0.0 11.3 0.00 0.91 0.05 73 1006.8
20260507123003 12 191 0.0 11.3 0.00 0.91 0.05 73 1006.9
20260507122404 11 190 0.0 4.8 0.00 0.91 0.05 75 1007.0
20260507121803 11 191 0.0 3.2 0.00 0.91 0.05 77 1007.1
20260507121203 11 191 0.0 3.2 0.00 0.91 0.05 77 1007.1
20260507120603 11 191 0.0 3.2 0.00 0.91 0.05 81 1007.1
20260507120004 10 191 0.0 4.8 0.00 0.91 0.05 83 1007.0
20260507115403 10 191 0.0 3.2 0.00 0.91 0.05 84 1007.2
20260507114803 9 191 0.0 4.8 0.00 0.91 0.05 85 1007.2
20260507114204 9 191 0.0 6.4 0.00 0.91 0.05 86 1006.8
20260507113604 9 191 0.0 6.4 0.00 0.91 0.05 86 1006.6
20260507113004 9 191 0.0 1.6 0.00 0.91 0.05 87 1006.7
20260507112403 8 190 0.0 3.2 0.00 0.91 0.05 87 1006.7
20260507111804 8 191 0.0 3.2 0.00 0.91 0.05 88 1006.8
20260507111203 8 191 0.0 3.2 0.00 0.91 0.05 88 1006.9
20260507110603 8 190 0.0 3.2 0.00 0.91 0.05 89 1006.9
20260507110004 8 190 0.0 3.2 0.00 0.91 0.05 89 1006.8
20260507105404 8 191 0.0 3.2 0.00 0.91 0.05 89 1006.4
20260507104803 8 0 0.0 0.0 0.00 0.91 0.05 90 1006.4
20260507104203 8 191 0.0 1.6 0.00 0.91 0.05 90 1006.4
20260507103604 8 191 0.0 3.2 0.00 0.91 0.05 90 1006.3
20260507103003 8 191 0.0 3.2 0.00 0.91 0.05 91 1006.2
20260507102403 8 191 0.0 1.6 0.00 0.91 0.05 91 1006.6
20260507101804 8 0 0.0 0.0 0.00 0.91 0.05 92 1006.5
20260507101204 8 191 0.0 1.6 0.00 0.91 0.05 91 1006.4
20260507100603 8 191 0.0 4.8 0.00 0.91 0.05 92 1006.2
20260507100003 8 191 0.0 4.8 0.00 0.91 0.05 91 1006.7
20260507095404 8 191 0.0 6.4 0.00 0.91 0.05 92 1006.3
20260507094804 8 191 0.0 6.4 0.00 0.91 0.05 92 1006.5
20260507094203 8 191 0.0 4.8 0.00 0.91 0.05 92 1006.5
20260507093603 8 190 0.0 3.2 0.00 0.91 0.05 92 1006.3
20260507093004 8 191 0.0 4.8 0.00 0.91 0.05 92 1006.5
20260507092404 8 191 0.0 9.7 0.00 0.91 0.05 93 1006.5
20260507091803 8 190 0.0 9.7 0.00 0.91 0.05 93 1006.5
20260507091203 8 191 0.0 4.8 0.00 0.91 0.05 93 1006.3
20260507090604 8 191 0.0 4.8 0.03 0.91 0.05 93 1006.2
20260507090005 8 191 0.0 3.2 0.03 0.91 0.05 93 1006.1
20260507085403 8 191 0.0 3.2 0.03 0.91 0.05 93 1006.1
20260507084803 9 0 0.0 0.0 0.03 0.91 0.05 92 1006.3
20260507084204 9 191 0.0 1.6 0.03 0.91 0.05 92 1006.1
20260507083604 9 191 0.0 6.4 0.03 0.91 0.05 92 1005.8
20260507083004 9 190 0.0 3.2 0.05 0.91 0.05 92 1006.1
20260507082403 9 191 0.0 3.2 0.05 0.91 0.05 91 1005.9
20260507081804 9 191 0.0 3.2 0.05 0.91 0.05 91 1005.8
20260507081203 10 191 0.0 4.8 0.05 0.91 0.05 90 1005.7
20260507080603 10 190 0.0 8.0 0.03 0.89 0.03 89 1005.8
20260507080004 10 191 0.0 4.8 0.03 0.89 0.03 89 1005.9
20260507075404 10 191 0.0 4.8 0.03 0.89 0.03 89 1006.0
20260507074803 10 191 0.0 3.2 0.03 0.89 0.03 89 1006.0
20260507074203 10 191 0.0 8.0 0.03 0.89 0.03 89 1005.5
20260507073604 10 191 0.0 8.0 0.03 0.89 0.03 88 1005.6
20260507073004 10 191 0.0 8.0 0.00 0.86 0.00 89 1005.2
20260507072403 10 191 0.0 4.8 0.00 0.86 0.00 89 1005.4
20260507071803 10 191 0.0 4.8 0.00 0.86 0.00 90 1005.5
20260507071204 10 191 0.0 4.8 0.00 0.86 0.00 90 1005.6
20260507070603 10 191 0.0 8.0 0.00 0.86 0.00 91 1005.4
20260507070006 11 191 0.0 9.7 0.00 0.86 0.00 91 1005.4
20260507065404 11 191 0.0 9.7 0.00 0.86 0.00 91 1005.3
20260507064804 11 191 0.0 3.2 0.00 0.86 0.00 91 1005.3
20260507064203 11 191 0.0 3.2 0.00 0.86 0.00 91 1005.1
20260507063603 11 191 0.0 1.6 0.00 0.86 0.00 91 1005.0
20260507063004 11 191 0.0 1.6 0.00 0.86 0.00 90 1005.0
20260507062403 11 190 0.0 8.0 0.00 0.86 0.00 90 1005.2
20260507061803 11 191 0.0 4.8 0.00 0.86 0.00 89 1005.1
20260507061204 11 191 0.0 6.4 0.00 0.86 0.00 90 1005.2
20260507060604 11 191 0.0 6.4 0.00 0.86 0.00 89 1005.4
20260507060003 11 191 0.0 9.7 0.00 0.86 0.00 89 1005.2
20260507055403 11 191 0.0 9.7 0.00 0.86 0.00 89 1005.4
20260507054804 11 189 0.0 9.7 0.00 0.86 0.00 90 1005.4
20260507054203 11 189 0.0 9.7 0.00 0.86 0.00 90 1005.4
20260507053603 11 188 0.0 8.0 0.00 0.86 0.00 90 1005.4
20260507053004 11 188 0.0 9.7 0.00 0.86 0.00 91 1005.5
20260507052404 11 188 0.0 6.4 0.00 0.86 0.00 91 1005.5
20260507051803 11 188 0.0 6.4 0.00 0.86 0.00 91 1005.4
20260507051203 11 186 1.6 9.7 0.00 0.86 0.00 91 1005.5
20260507050604 11 185 0.0 8.0 0.00 0.86 0.00 92 1005.4
20260507050003 11 184 0.0 4.8 0.00 0.86 0.00 93 1005.4
20260507045403 11 185 0.0 4.8 0.00 0.86 0.00 93 1005.1
20260507044803 12 185 0.0 8.0 0.00 0.86 0.00 93 1005.1
20260507044204 12 184 0.0 8.0 0.00 0.86 0.00 94 1005.2
20260507043603 12 185 0.0 8.0 0.00 0.86 0.00 94 1005.4
20260507043003 12 184 0.0 9.7 0.00 0.86 0.00 94 1005.4
20260507042403 12 185 0.0 4.8 0.00 0.86 0.00 95 1005.4
20260507041804 12 184 0.0 8.0 0.00 0.86 0.00 95 1005.5
20260507041203 13 184 0.0 9.7 0.00 0.86 0.00 96 1005.3
20260507040603 13 184 0.0 4.8 0.00 0.86 0.00 96 1005.1
20260507040004 13 184 0.0 1.6 0.00 0.86 0.00 97 1005.0
20260507035404 13 184 0.0 4.8 0.00 0.86 0.86 97 1004.9
20260507034803 13 184 0.0 3.2 0.00 0.86 0.86 97 1004.7
20260507034203 13 184 0.0 4.8 0.00 0.86 0.86 97 1004.7
20260507033604 14 185 0.0 8.0 0.00 0.86 0.86 97 1004.7
20260507033004 15 185 0.0 8.0 0.00 0.86 0.86 96 1004.5
20260507032403 15 184 0.0 8.0 0.00 0.86 0.86 97 1004.4
20260507031803 15 184 0.0 3.2 0.00 0.86 0.86 97 1004.3
20260507031204 15 184 0.0 1.6 0.00 0.86 0.86 97 1004.3
20260507030603 15 184 1.6 11.3 0.00 0.86 0.86 97 1004.2
20260507030003 15 184 0.0 11.3 0.00 0.86 0.86 97 1004.2
20260507025404 15 184 0.0 6.4 0.00 0.86 0.86 97 1004.2
20260507024804 15 185 0.0 8.0 0.00 0.86 0.86 97 1004.3
20260507024203 15 184 1.6 8.0 0.00 0.86 0.86 97 1004.3
20260507023603 15 185 1.6 12.9 0.00 0.86 0.86 97 1004.1
20260507023004 15 184 0.0 12.9 0.00 0.86 0.86 97 1004.3
20260507022404 15 184 0.0 4.8 0.00 0.86 0.86 97 1004.3
20260507021803 15 184 0.0 9.7 0.00 0.86 0.86 97 1004.1
20260507021203 15 184 1.6 9.7 0.00 0.86 0.86 97 1004.2
20260507020604 15 184 1.6 6.4 0.00 0.86 0.86 98 1004.3
20260507020004 15 185 1.6 6.4 0.00 0.86 0.86 98 1004.5
20260507015403 15 184 0.0 9.7 0.00 0.86 0.86 98 1004.5